Theta_e
348 347 347 348 346 345 343 346 344 345 343 342 339 340 340 341 340 337 340 338 340 342 343 344 344 346 346 349 349 348 347 346 344 345 347 346 344 342 342 342 344 343 343
349 348 347 346 348 347 346 346 346 344 344 344 343 339 340 342 343 343 342 339 340 341 341 342 343 345 349 350 349 348 345 347 347 345 344 343 342 345 342 341 342 341 343
348 347 348 347 348 346 341 348 347 347 346 345 346 345 341 343 342 342 341 342 339 338 339 340 341 346 349 349 349 349 345 342 341 341 341 341 343 342 343 344 344 341 342
347 348 344 345 348 347 344 348 348 346 344 345 345 346 344 343 345 345 344 342 340 338 338 340 341 343 346 346 350 347 343 342 342 342 344 343 342 342 343 342 341 342 342
349 348 343 340 345 345 346 340 342 343 346 346 346 347 347 343 344 345 344 344 343 341 338 341 340 341 342 346 350 348 345 343 340 339 338 337 336 336 337 341 343 343 342
346 348 347 342 344 346 347 346 347 346 347 346 346 348 349 346 346 345 346 344 345 344 341 341 340 340 340 337 343 341 340 341 341 343 341 340 340 337 337 337 338 341 342
344 349 349 347 348 347 348 348 348 349 348 347 347 347 348 350 348 347 345 345 344 345 344 343 341 339 335 336 339 340 340 340 339 337 335 335 338 341 340 340 337 336 338
345 349 349 348 348 349 348 349 350 349 344 346 344 343 341 344 346 347 346 346 347 346 345 344 343 343 336 337 340 341 342 342 341 336 337 341 341 343 342 342 342 337 336
348 349 349 348 349 348 348 349 350 345 346 341 342 341 340 343 341 345 346 346 347 347 346 346 344 343 342 336 339 342 343 344 344 336 341 343 342 341 341 341 341 343 342
350 348 349 347 351 348 350 349 350 349 348 342 342 342 343 343 339 337 340 345 346 346 346 347 345 345 346 344 339 340 344 344 344 337 343 342 342 341 342 340 341 340 340
350 347 346 350 347 348 349 351 350 350 349 346 342 341 340 341 341 340 341 345 346 346 347 346 347 347 346 344 344 344 344 345 342 337 340 343 342 340 340 340 338 337 341
348 349 348 350 349 349 350 350 351 351 351 349 342 345 346 346 344 343 342 341 345 346 346 344 345 346 347 347 346 345 346 346 340 337 339 340 340 340 341 343 341 335 337
347 346 345 345 349 349 349 351 350 350 351 350 350 349 347 347 340 344 344 341 339 342 343 343 345 346 347 346 346 346 346 345 339 337 340 340 343 343 341 341 342 342 336
348 347 347 346 348 347 347 349 350 350 351 351 352 351 351 349 348 347 347 341 337 338 341 347 345 345 347 346 346 347 347 342 338 338 339 340 340 342 343 342 342 342 342
349 347 349 349 348 349 350 350 349 351 352 352 350 350 350 350 347 347 345 345 340 337 337 344 348 346 348 348 348 348 343 339 338 339 338 340 340 340 342 343 343 343 343
348 350 349 350 348 346 347 350 347 350 351 352 351 351 350 349 348 346 346 347 340 342 338 341 346 348 348 348 347 344 342 339 338 338 338 337 338 340 340 341 342 342 343
348 348 349 349 347 347 347 344 350 351 350 352 351 350 351 350 349 350 349 349 348 345 343 344 344 348 348 347 346 344 341 339 338 337 336 335 334 334 336 339 340 342 342
348 350 351 349 349 349 350 350 351 351 351 351 351 350 351 351 351 350 351 350 347 347 345 342 346 346 346 345 345 343 341 338 337 335 335 338 338 338 338 336 335 340 341
348 348 350 350 349 348 348 348 349 349 350 352 352 351 350 350 351 350 350 350 349 346 348 345 343 345 344 344 343 340 339 337 335 335 337 337 337 337 337 337 337 334 339
347 347 346 346 347 345 346 348 349 349 348 348 350 351 352 352 352 352 350 350 350 350 348 346 341 341 341 342 342 340 336 335 333 335 335 335 335 335 336 336 336 337 334
349 351 351 349 346 349 349 349 350 351 351 350 350 350 349 350 352 353 351 350 350 350 349 346 343 342 343 341 340 338 337 336 334 335 335 334 333 334 335 335 335 335 337
352 353 353 353 353 351 351 352 352 352 353 352 353 352 351 350 350 351 351 350 350 350 350 347 344 345 345 342 340 339 337 333 331 333 334 333 332 333 335 334 333 334 334
353 353 353 353 354 354 353 352 353 353 353 351 351 352 351 352 350 350 350 351 351 351 349 350 348 346 345 345 342 340 338 337 337 337 334 331 331 331 331 332 333 332 332
353 353 353 353 353 353 353 353 353 352 351 350 351 351 351 352 352 351 349 349 350 351 352 349 350 350 349 347 346 345 343 338 337 336 335 329 330 329 330 328 328 328 327
353 353 353 352 350 350 347 347 348 346 346 348 349 350 351 352 352 351 351 349 348 348 350 351 350 350 350 348 348 345 340 336 332 330 331 331 327 326 326 325 326 326 326
354 352 348 346 343 343 340 340 340 340 342 343 342 343 347 348 348 349 351 350 349 349 348 348 349 349 347 347 347 347 344 338 335 326 331 328 325 325 320 323 324 324 326
Wind_Speed
7 7 8 9 12 12 15 10 12 11 12 10 13 14 14 12 14 14 11 11 12 13 13 14 15 16 15 15 15 15 14 14 15 16 16 16 16 16 15 14 14 13 12
7 7 8 7 3 3 7 9 9 10 12 12 12 13 14 15 15 14 13 13 14 13 13 13 15 16 16 15 15 15 14 15 16 17 18 18 17 17 16 15 15 15 13
7 7 4 5 5 8 3 6 6 8 8 13 13 14 15 13 14 14 14 13 16 15 14 14 15 16 16 15 15 16 16 16 16 18 18 17 18 17 18 17 16 15 14
7 8 3 6 6 6 3 6 7 5 6 11 12 13 16 16 14 15 16 16 14 16 16 16 15 16 17 16 16 16 14 15 16 16 16 16 16 16 17 19 18 17 16
9 6 4 4 7 0 0 2 4 3 4 3 11 13 14 17 16 14 14 15 17 19 19 16 15 18 17 16 15 14 14 14 14 13 14 15 16 17 17 16 16 17 17
13 9 4 3 5 3 3 2 3 4 3 6 8 9 13 14 17 19 17 17 18 19 20 19 17 18 16 15 13 13 12 11 12 13 14 15 16 16 17 16 16 14 15
14 11 9 4 4 3 1 2 2 3 4 2 5 5 9 10 15 21 16 17 19 20 20 21 18 19 18 17 13 13 11 11 11 13 14 14 16 16 17 17 16 15 16
14 11 11 8 4 2 1 4 5 3 4 1 3 4 1 3 6 18 19 18 19 20 18 21 20 19 19 18 17 14 13 11 13 12 13 13 14 14 14 16 17 16 15
14 12 12 8 5 4 2 3 1 7 6 4 4 3 2 3 1 6 14 18 18 19 21 21 19 19 19 21 18 16 14 14 13 12 11 11 10 11 12 13 13 15 16
15 11 10 8 7 4 2 5 3 3 5 5 4 2 3 4 3 1 5 12 14 20 18 18 17 19 19 21 19 19 17 14 13 12 10 9 9 10 10 9 10 12 15
14 11 8 9 8 7 5 5 5 6 7 6 4 5 4 3 4 2 2 5 10 16 17 17 19 20 20 16 16 17 17 16 14 11 9 10 8 7 8 8 7 10 12
15 12 11 9 12 9 8 7 8 7 8 9 6 5 5 4 4 4 2 4 4 7 13 12 15 17 22 19 18 17 17 16 13 10 8 8 8 9 10 9 9 8 11
15 13 11 13 13 11 9 8 8 8 8 10 8 9 9 9 6 8 6 2 3 6 8 14 14 11 15 17 17 19 18 16 11 9 7 6 5 7 7 8 9 8 9
14 11 10 12 13 13 12 10 9 9 8 8 8 8 7 10 12 10 6 7 1 2 5 6 13 16 14 18 18 20 19 13 11 8 7 6 6 5 6 8 9 10 9
14 13 11 13 14 12 12 10 10 10 10 9 8 8 10 10 11 13 8 10 6 2 2 5 6 11 12 14 19 19 14 12 11 9 7 6 6 5 6 6 6 9 13
14 11 12 9 7 9 12 11 11 12 11 11 9 10 11 8 10 15 13 12 14 8 2 3 8 7 12 14 16 15 14 14 12 10 9 8 7 6 6 6 6 6 9
14 12 13 12 11 9 9 10 10 10 13 12 12 13 12 10 10 11 13 13 11 15 10 6 10 11 14 17 18 16 17 16 15 13 11 10 9 8 8 8 8 8 9
16 13 12 13 13 13 12 12 13 13 14 14 15 14 14 13 13 12 13 13 13 15 16 10 11 11 16 19 19 18 18 18 16 15 13 12 11 11 10 11 11 10 11
22 21 18 18 17 17 17 17 17 17 16 17 15 15 16 15 15 16 15 15 14 16 16 11 11 15 10 19 18 17 18 17 16 15 13 12 12 11 11 11 13 14 13
25 24 25 24 24 23 21 18 17 17 17 18 17 18 19 19 18 18 17 18 16 14 18 18 13 15 16 18 20 22 22 20 19 16 15 15 13 11 11 12 12 14 16
24 22 22 22 23 22 21 19 19 19 19 20 20 20 21 21 20 20 20 19 19 17 17 18 16 12 14 15 25 24 23 24 21 20 18 17 14 13 12 12 15 15 15
24 23 22 22 21 23 21 20 20 21 21 22 22 21 20 20 22 23 24 23 22 21 22 21 20 16 20 24 25 26 22 14 7 22 22 23 19 16 15 12 13 16 17
23 23 23 22 22 21 20 19 20 23 24 23 25 25 22 22 23 24 24 24 25 24 24 24 26 29 23 30 27 25 27 24 17 18 24 22 22 18 16 14 14 15 15
24 24 23 23 22 19 18 17 17 16 18 20 22 24 23 24 23 24 25 25 25 25 24 26 29 29 28 30 36 35 34 24 19 17 21 13 21 21 18 15 12 12 12
23 24 19 14 17 12 10 14 17 18 19 22 22 21 21 22 22 22 24 25 25 25 24 24 24 28 27 27 29 31 23 23 11 14 27 17 16 21 18 18 16 14 13
13 10 5 7 10 14 16 18 18 19 19 22 26 25 23 23 23 22 22 24 26 28 26 26 25 26 25 25 26 32 32 26 15 9 27 25 18 18 6 18 19 17 16
Wind_Direction
260 223 221 219 236 218 215 224 224 223 219 225 210 209 218 215 214 210 207 207 204 217 224 229 231 226 230 233 237 239 245 247 251 251 251 253 253 248 250 248 246 247 248
221 197 198 205 216 202 174 182 208 210 197 207 212 222 216 212 220 212 208 213 214 220 229 235 233 237 235 236 241 246 249 250 252 257 257 254 250 251 248 243 245 247 244
216 218 184 206 186 134 98 185 196 194 195 205 217 220 209 220 209 219 224 222 217 219 230 242 241 238 238 240 244 247 253 259 259 260 263 265 260 252 249 248 246 247 242
215 223 213 205 171 187 169 187 190 191 202 203 201 203 205 209 219 227 229 226 228 229 234 240 243 240 234 233 236 245 251 258 262 265 264 264 263 258 254 248 246 246 244
224 231 229 181 179 167 184 232 224 187 227 214 208 202 204 212 219 222 226 227 232 231 236 239 240 237 233 231 234 243 248 255 264 267 270 268 263 259 256 252 248 244 243
226 223 219 179 178 208 223 229 153 195 223 200 248 213 203 212 221 221 226 232 232 231 233 234 233 233 231 234 231 241 248 259 267 268 268 265 263 258 254 252 246 244 242
225 219 237 210 171 158 198 245 169 198 206 261 207 165 172 200 215 220 222 231 235 234 234 234 236 232 225 228 232 237 246 256 269 271 274 269 261 256 253 251 247 241 238
216 234 231 219 173 129 187 216 241 214 221 199 178 117 52 163 184 204 218 235 239 232 232 235 237 231 232 226 228 235 249 263 276 283 280 273 264 257 254 248 242 240 237
220 237 226 237 251 278 256 171 225 220 218 175 187 148 109 218 335 211 222 225 232 228 233 243 233 229 232 238 238 241 248 261 272 286 279 270 264 257 253 246 241 236 235
226 229 229 231 225 250 238 264 240 222 208 195 207 178 150 148 162 34 229 221 228 227 234 240 233 237 242 240 242 246 247 260 273 281 269 268 271 261 245 243 237 235 232
218 222 234 228 222 241 259 243 246 251 242 226 182 169 185 181 171 135 204 217 219 228 231 230 232 237 236 240 242 243 245 254 267 271 265 263 260 246 232 229 235 234 225
228 226 236 228 237 240 245 245 255 258 254 240 225 215 202 166 196 180 215 231 216 219 227 229 236 246 233 235 248 240 239 246 257 264 264 265 259 243 242 244 231 235 216
232 234 241 233 243 242 244 242 256 258 261 249 240 258 248 223 213 213 209 220 230 235 235 240 230 239 230 233 237 230 232 238 245 250 251 251 255 242 241 232 237 227 213
242 254 246 244 247 246 237 240 256 250 262 256 252 243 246 237 239 234 215 175 192 267 252 220 222 233 236 231 230 226 225 229 232 234 237 240 237 240 231 226 224 226 221
248 252 263 263 243 240 234 250 257 257 256 265 275 275 264 252 242 214 238 221 186 180 270 214 212 219 225 223 218 219 218 220 221 226 225 230 233 230 233 228 228 230 223
244 255 267 258 227 244 245 246 263 260 248 251 268 276 275 273 238 224 252 246 237 210 218 231 221 239 227 213 213 212 220 218 215 218 222 223 233 236 238 236 230 219 217
244 251 250 243 253 252 248 252 254 266 263 263 271 269 275 278 270 251 248 253 240 221 221 262 253 237 222 202 215 216 221 217 217 218 221 228 235 243 242 243 239 229 224
237 243 244 245 246 250 253 258 259 259 264 267 274 273 271 268 271 270 259 253 244 229 231 223 215 206 212 212 216 213 216 217 220 223 226 235 240 245 249 243 240 236 229
248 249 245 245 249 252 254 255 257 262 264 264 269 269 275 277 271 266 262 257 249 239 225 207 201 198 195 204 206 219 215 223 222 223 231 243 246 251 251 253 243 236 231
248 248 247 252 257 263 259 257 260 264 267 267 267 268 270 271 272 275 267 256 250 238 224 220 221 195 200 211 215 209 210 220 221 221 229 244 246 251 254 254 246 239 234
243 248 251 255 257 260 262 264 265 265 267 270 269 267 267 267 267 269 272 271 251 237 228 222 218 203 194 187 201 206 210 219 222 226 231 241 244 254 261 257 248 242 238
249 254 258 265 271 272 274 273 274 271 270 271 272 272 269 264 264 264 265 266 261 247 234 227 219 210 206 208 201 204 199 195 221 230 227 237 241 249 255 258 254 245 240
255 258 260 262 266 273 280 280 276 271 268 271 272 271 272 270 269 266 261 260 256 257 254 253 231 229 219 216 207 205 206 206 214 213 215 231 235 243 247 248 257 257 242
261 264 269 269 268 273 280 280 285 282 275 270 269 272 272 272 273 272 265 262 254 250 253 248 244 248 249 244 234 230 223 210 218 220 215 211 229 233 238 241 238 247 238
255 257 265 271 279 289 299 291 287 287 281 277 276 276 274 272 273 274 275 262 261 254 251 255 254 250 246 245 244 223 200 189 203 206 212 212 219 223 230 234 235 228 221
233 234 246 286 297 295 298 299 299 299 294 285 281 277 276 274 272 271 266 263 258 259 254 248 250 254 254 253 238 236 222 197 198 202 222 201 206 204 213 234 224 220 215